Wind_Speed
27 27 28 27 27 26 24 22 20 18 16 15 14 13 13 13 13 13 13 14 14 14 15 15 15 16 17 17 17 16 17 17 18 18 18 17 17 17 17 16 16 16 16 16
28 28 28 27 27 26 25 23 21 18 17 15 14 14 14 14 14 14 14 14 14 14 14 15 16 17 17 17 17 17 17 18 18 18 18 18 18 17 17 17 17 16 17 16
27 28 28 28 26 25 24 23 22 20 18 16 15 14 13 12 11 12 13 13 13 13 14 16 17 17 18 18 18 19 18 18 18 18 18 18 18 17 17 18 17 17 17 17
27 27 28 26 25 24 23 22 20 18 17 16 16 15 13 12 11 12 13 13 13 14 14 16 17 18 17 18 18 17 18 18 18 18 18 18 18 18 18 18 18 18 17 16
28 28 27 25 25 24 23 22 21 19 18 17 17 16 15 15 14 14 14 13 13 13 14 15 16 17 17 17 17 17 17 18 18 19 18 18 18 18 17 17 17 17 17 17
29 29 28 26 25 24 23 23 21 21 20 18 18 17 17 17 16 16 15 14 14 13 14 15 16 16 17 17 17 18 18 18 18 18 18 19 19 18 18 18 18 18 18 18
29 30 29 27 26 25 23 21 21 20 20 19 18 18 18 18 17 17 16 16 15 15 16 16 16 16 17 16 16 18 19 19 19 19 18 19 19 19 19 19 19 20 20 20
28 29 29 28 26 25 23 22 22 21 20 19 18 17 18 18 18 18 17 17 17 16 17 17 17 17 17 18 18 18 19 20 19 20 19 19 20 20 21 21 21 21 21 21
29 29 28 27 26 25 24 23 22 21 21 20 19 18 18 18 18 18 18 18 18 18 18 18 18 18 18 19 20 20 20 20 20 20 21 21 21 21 20 21 21 22 22 22
30 28 27 26 25 25 24 24 23 22 22 22 21 20 20 19 18 18 18 19 19 19 19 19 19 20 20 20 20 20 21 21 21 20 21 21 21 22 22 23 23 24 24 24
28 27 27 27 25 24 23 23 22 21 22 22 22 21 20 19 18 18 19 20 20 20 20 20 20 21 20 20 20 20 21 21 22 22 22 22 23 23 24 25 25 25 25 26
27 26 26 26 25 26 25 24 23 22 21 21 21 20 20 20 20 19 19 19 19 19 21 22 22 22 22 22 21 21 21 21 22 22 23 24 25 25 26 27 28 28 28 29
26 25 25 26 26 26 26 25 24 23 22 21 21 20 20 20 20 19 19 19 19 20 21 22 22 22 23 23 23 22 22 22 22 23 24 25 26 27 27 28 29 30 30 31
24 24 24 25 25 25 25 24 24 24 23 22 21 21 20 20 20 20 20 20 20 21 21 22 22 22 23 23 23 24 24 24 24 24 25 26 27 27 29 30 30 31 32 33
23 23 22 22 24 24 24 24 23 23 23 22 21 20 20 19 20 20 19 19 19 20 21 22 22 22 23 23 24 24 25 24 24 25 25 26 27 27 28 30 31 32 34 35
22 22 21 20 20 20 20 21 21 20 21 21 20 19 18 18 18 18 18 18 18 18 19 20 20 21 22 23 23 24 24 24 24 24 25 26 27 28 28 28 29 30 31 33
21 22 21 20 20 18 18 19 19 19 19 20 19 18 17 17 17 17 17 17 17 17 17 18 19 20 21 22 23 23 23 23 24 25 25 26 27 28 29 29 29 29 30 30
22 21 20 19 19 18 17 17 18 18 17 17 17 17 17 17 16 16 17 17 17 17 18 18 19 20 20 21 22 22 22 23 23 24 25 26 27 28 29 30 30 31 33 33
20 20 19 18 17 17 16 16 16 17 17 16 15 15 14 14 15 15 16 16 17 18 19 18 19 19 21 21 22 23 23 23 24 25 26 27 28 28 29 30 31 32 33 34
18 18 18 18 17 17 16 15 15 14 14 13 13 14 14 14 14 15 16 17 17 17 18 19 19 19 21 21 21 23 24 25 25 26 26 27 28 30 31 32 32 33 34 36
17 17 17 17 17 17 16 15 15 14 13 13 13 13 13 13 13 14 16 16 17 17 18 18 19 20 20 21 22 23 24 25 25 26 27 28 29 30 31 32 33 34 35 37
16 15 16 16 16 16 14 13 13 13 12 13 13 13 13 13 13 14 14 15 15 17 18 19 19 19 20 21 22 23 24 25 26 27 28 29 30 32 34 34 35 36 37 38
15 15 15 15 15 14 14 13 12 12 11 11 11 12 11 12 13 13 14 14 15 16 17 18 19 19 20 21 22 23 25 25 26 27 29 30 32 33 34 35 35 36 36 37
15 15 15 14 13 12 12 12 12 11 11 10 11 11 11 12 13 14 15 16 16 17 18 18 19 20 21 22 22 23 24 25 27 28 29 30 31 31 32 33 34 35 37 38
14 15 14 12 12 11 11 10 10 9 9 10 10 11 11 12 13 14 15 15 15 16 16 17 18 18 19 21 22 23 25 26 26 28 29 29 30 31 32 33 34 35 37 38
15 14 13 12 11 11 10 10 9 9 9 9 10 10 11 12 12 12 13 13 14 14 15 17 18 18 19 21 22 23 24 25 27 27 28 29 30 32 33 34 35 36 37 39
14 13 13 12 11 11 10 10 9 9 10 10 10 10 11 11 11 12 13 13 14 15 16 16 18 19 20 22 23 24 24 25 26 28 29 30 31 32 33 34 36 37 38 38
Wind_Direction
219 221 225 229 232 236 240 249 255 258 259 259 258 258 259 260 261 260 253 248 248 245 242 240 237 235 233 234 234 231 228 223 222 224 228 230 229 228 228 231 232 231 232 236
218 220 224 230 233 236 240 247 253 255 255 256 258 263 263 262 261 256 249 246 247 243 240 237 237 238 237 236 233 229 228 225 223 224 228 229 230 232 232 230 231 234 236 239
220 223 227 230 232 236 240 247 252 253 253 254 259 262 260 257 252 246 243 243 244 242 241 239 239 239 237 235 232 229 226 224 224 225 226 227 228 231 232 231 233 239 240 240
224 226 230 232 233 237 242 244 246 250 252 256 256 258 253 247 244 242 243 245 246 246 247 242 239 235 234 232 230 229 226 225 224 226 229 231 229 229 233 235 237 239 242 243
226 229 234 234 234 237 241 242 244 249 253 253 254 255 250 247 243 243 244 244 245 246 244 239 234 231 232 233 230 230 230 229 229 231 231 230 230 232 236 237 239 241 242 246
231 233 236 236 236 238 240 241 244 249 251 252 252 253 251 248 244 244 243 245 246 246 244 239 234 233 234 235 232 230 230 231 230 228 230 231 232 235 238 240 242 246 249 250
234 235 235 235 237 239 240 241 245 248 249 249 247 249 247 245 242 243 243 244 245 245 243 240 236 234 234 234 232 231 232 234 231 231 232 233 236 238 241 244 247 250 251 254
232 234 234 235 236 239 242 244 247 249 247 245 245 246 244 242 241 243 246 247 246 245 243 239 237 235 234 234 235 234 232 232 233 233 234 237 238 241 246 248 250 252 253 255
231 234 234 235 237 240 243 244 247 247 241 242 243 245 243 242 242 243 244 244 245 243 243 238 235 235 235 237 237 235 233 234 235 239 241 242 243 244 247 249 250 252 255 256
231 232 233 234 237 241 243 243 245 246 243 244 244 244 244 242 243 244 244 246 245 244 242 238 237 238 237 239 239 237 236 237 239 242 243 244 246 248 249 251 253 256 258 259
230 233 234 234 237 240 241 241 243 244 240 241 241 241 241 241 242 242 246 246 243 244 242 240 239 239 239 237 237 238 238 240 241 243 245 246 247 250 252 254 257 259 260 262
231 232 234 234 236 239 240 241 242 242 241 240 240 241 240 240 240 242 244 243 241 242 240 240 239 239 239 240 241 242 243 243 244 246 248 250 250 252 255 257 258 260 262 263
229 233 235 234 236 238 238 237 238 238 238 239 241 243 242 241 241 242 243 243 243 244 243 242 240 241 242 242 244 244 245 246 249 252 253 254 256 258 258 260 261 261 262 264
227 229 230 231 234 234 234 235 235 235 236 238 241 244 243 242 241 242 244 245 246 247 245 241 239 242 242 244 246 246 246 249 253 256 258 259 260 261 261 264 264 263 263 265
222 224 226 227 229 231 231 231 233 233 230 232 238 241 240 239 239 241 245 246 247 247 245 242 241 242 243 244 246 248 250 252 254 258 260 262 263 264 265 266 267 267 266 266
221 222 224 226 227 227 229 228 229 229 229 230 234 237 238 239 238 238 242 244 245 247 244 241 241 241 242 244 248 250 252 255 257 259 261 263 264 265 267 268 271 272 270 269
217 218 220 224 228 230 229 227 229 230 228 227 230 234 237 240 238 237 240 242 243 243 241 238 240 243 245 248 250 253 254 256 257 260 263 264 265 267 269 270 272 273 275 275
213 216 220 223 225 226 225 228 228 228 228 226 228 232 236 239 238 237 240 242 244 243 241 241 244 247 249 250 251 253 257 260 261 263 265 266 268 269 271 273 273 274 275 276
209 214 217 218 220 219 220 222 223 224 226 229 231 233 234 235 236 239 242 244 244 244 243 244 249 251 251 253 255 257 260 263 265 267 268 268 269 270 273 275 275 275 275 276
209 211 212 214 215 213 211 209 210 216 220 223 225 229 233 236 240 242 244 247 247 245 245 247 251 253 255 258 259 262 265 266 268 269 270 270 272 272 274 275 276 277 276 276
203 206 206 207 206 206 205 206 210 215 221 225 228 231 236 241 245 248 247 246 247 248 249 250 252 255 257 261 264 264 266 268 270 271 272 273 274 274 275 276 277 277 277 277
197 199 199 199 199 200 202 205 208 213 220 224 228 232 235 239 245 248 249 249 250 253 255 256 258 259 262 265 267 268 270 271 273 273 274 275 276 277 278 279 279 279 280 281
195 195 194 195 196 197 201 206 208 212 219 225 230 233 235 240 245 251 255 257 258 260 262 263 262 263 265 268 268 270 272 275 276 276 278 279 280 281 281 282 282 282 283 284
192 193 191 191 193 195 200 204 208 213 219 224 230 237 245 251 253 255 258 262 266 267 268 268 269 270 269 271 272 273 275 277 280 281 283 284 284 284 286 286 286 286 286 286
190 191 191 191 193 198 203 206 208 214 222 232 238 245 251 256 260 260 261 263 267 270 273 276 278 279 278 278 279 281 282 283 284 286 287 287 288 289 290 291 291 290 290 290
184 187 188 191 196 202 207 209 214 220 229 240 248 254 260 263 265 268 270 273 276 279 281 282 284 284 285 286 288 289 289 289 289 290 289 289 291 291 292 292 292 292 292 292
184 185 189 194 198 205 209 213 222 230 240 248 255 263 269 271 274 277 279 282 284 286 287 288 289 289 289 289 289 290 292 292 292 292 292 292 294 295 295 296 297 297 297 297
Height
5761 5764 5768 5772 5776 5778 5781 5784 5787 5789 5790 5792 5792 5793 5794 5794 5795 5796 5797 5798 5799 5800 5801 5803 5804 5806 5808 5809 5811 5813 5815 5817 5820 5823 5825 5827 5829 5831 5833 5835 5836 5838 5840 5842
5755 5759 5763 5767 5771 5774 5777 5780 5782 5784 5786 5788 5788 5789 5790 5791 5791 5792 5793 5794 5796 5796 5798 5799 5801 5803 5804 5806 5808 5810 5812 5814 5817 5819 5821 5824 5826 5828 5829 5831 5833 5835 5837 5838
5750 5754 5758 5762 5765 5769 5772 5775 5778 5780 5783 5783 5785 5786 5786 5787 5788 5788 5789 5791 5792 5793 5794 5795 5797 5799 5801 5802 5805 5807 5809 5811 5814 5816 5818 5820 5822 5824 5826 5828 5830 5832 5833 5835
5745 5750 5752 5759 5761 5764 5767 5770 5772 5775 5777 5779 5780 5781 5783 5784 5784 5785 5787 5788 5789 5789 5790 5791 5793 5795 5797 5799 5801 5803 5806 5808 5810 5813 5815 5817 5819 5821 5823 5825 5826 5828 5830 5831
5740 5743 5747 5752 5756 5759 5762 5765 5768 5770 5772 5774 5775 5777 5779 5780 5781 5782 5783 5784 5785 5786 5787 5788 5789 5791 5794 5796 5798 5800 5802 5804 5807 5809 5811 5813 5815 5817 5819 5821 5823 5824 5826 5827
5734 5738 5742 5748 5751 5754 5758 5760 5763 5765 5767 5769 5771 5773 5775 5775 5776 5778 5779 5781 5782 5783 5784 5785 5787 5789 5791 5793 5795 5797 5799 5801 5803 5805 5807 5810 5812 5814 5816 5818 5819 5821 5822 5823
5728 5732 5737 5742 5745 5749 5753 5757 5758 5760 5762 5764 5766 5768 5770 5771 5772 5773 5775 5776 5778 5779 5780 5782 5784 5786 5788 5790 5792 5794 5795 5797 5799 5802 5804 5806 5808 5810 5812 5813 5815 5816 5818 5819
5723 5727 5733 5736 5740 5744 5747 5750 5752 5755 5757 5759 5760 5762 5764 5766 5767 5769 5770 5772 5773 5775 5777 5779 5781 5783 5785 5786 5788 5790 5792 5793 5795 5798 5800 5802 5804 5806 5807 5809 5810 5811 5812 5813
5719 5724 5727 5731 5734 5738 5741 5744 5747 5749 5752 5754 5756 5757 5759 5761 5763 5765 5766 5768 5769 5771 5772 5774 5777 5779 5781 5782 5784 5786 5788 5790 5792 5793 5795 5797 5799 5801 5802 5803 5805 5806 5807 5808
5712 5716 5721 5725 5729 5732 5736 5739 5741 5744 5747 5749 5751 5753 5755 5756 5758 5760 5762 5763 5765 5766 5768 5770 5772 5774 5776 5778 5780 5781 5784 5785 5787 5789 5790 5792 5794 5795 5797 5798 5799 5800 5801 5801
5706 5711 5715 5719 5723 5726 5729 5733 5736 5738 5741 5743 5746 5748 5750 5751 5753 5754 5756 5758 5760 5761 5763 5765 5767 5769 5771 5773 5775 5777 5779 5781 5782 5784 5785 5787 5788 5790 5791 5792 5793 5794 5794 5795
5702 5706 5710 5714 5717 5720 5724 5727 5730 5733 5736 5738 5740 5742 5744 5745 5747 5749 5751 5753 5754 5756 5758 5760 5762 5764 5766 5768 5770 5772 5774 5775 5777 5778 5780 5781 5782 5783 5784 5785 5786 5786 5787 5787
5696 5700 5704 5707 5711 5714 5718 5721 5724 5727 5730 5732 5735 5736 5738 5740 5742 5744 5746 5747 5749 5751 5752 5754 5756 5758 5760 5762 5764 5766 5768 5770 5771 5772 5773 5774 5775 5775 5776 5777 5777 5778 5779 5779
5690 5694 5698 5701 5705 5708 5711 5715 5718 5721 5724 5727 5729 5731 5733 5735 5736 5738 5740 5742 5743 5745 5746 5748 5750 5752 5754 5757 5759 5760 5762 5763 5764 5765 5766 5767 5767 5768 5768 5769 5769 5769 5770 5770
5685 5689 5693 5696 5699 5702 5705 5709 5712 5715 5718 5721 5723 5725 5727 5729 5731 5733 5734 5736 5737 5739 5740 5742 5744 5747 5749 5751 5753 5754 5756 5757 5758 5759 5759 5760 5760 5760 5760 5760 5760 5760 5760 5760
5681 5685 5688 5692 5695 5697 5700 5703 5707 5710 5712 5715 5718 5720 5722 5724 5726 5727 5729 5730 5732 5733 5734 5736 5738 5740 5743 5745 5747 5748 5749 5750 5751 5752 5752 5752 5752 5752 5752 5752 5752 5752 5751 5750
5676 5680 5684 5687 5690 5693 5695 5699 5702 5705 5707 5710 5713 5715 5717 5719 5721 5722 5724 5726 5727 5728 5729 5731 5733 5735 5737 5738 5740 5741 5742 5743 5744 5745 5745 5745 5745 5745 5745 5744 5744 5743 5742 5742
5672 5676 5679 5683 5686 5689 5691 5694 5697 5700 5703 5705 5708 5711 5713 5714 5716 5718 5719 5721 5722 5724 5725 5726 5728 5729 5731 5732 5733 5734 5736 5736 5737 5737 5737 5737 5737 5737 5736 5736 5735 5734 5733 5732
5668 5672 5675 5679 5682 5685 5688 5691 5693 5696 5699 5702 5704 5706 5709 5710 5711 5713 5715 5716 5718 5719 5720 5721 5722 5724 5725 5726 5727 5728 5729 5729 5729 5729 5729 5729 5729 5728 5727 5727 5726 5724 5723 5722
5665 5668 5672 5675 5678 5681 5684 5687 5690 5693 5696 5698 5701 5703 5705 5706 5707 5709 5710 5712 5713 5714 5715 5716 5717 5718 5719 5720 5721 5721 5722 5722 5721 5721 5721 5721 5720 5719 5718 5717 5716 5714 5713 5711
5662 5665 5668 5672 5675 5678 5682 5685 5688 5691 5693 5695 5698 5699 5701 5702 5704 5705 5706 5707 5708 5709 5710 5711 5712 5713 5713 5714 5714 5714 5714 5714 5714 5713 5713 5712 5711 5710 5708 5707 5705 5703 5702 5700
5660 5664 5667 5670 5673 5677 5680 5683 5685 5688 5690 5692 5694 5696 5698 5699 5700 5701 5702 5702 5703 5704 5705 5706 5707 5707 5708 5708 5708 5708 5707 5707 5706 5705 5704 5703 5702 5700 5698 5697 5695 5693 5690 5688
5660 5663 5666 5669 5672 5675 5678 5681 5683 5685 5688 5689 5691 5692 5694 5695 5697 5698 5699 5699 5700 5700 5700 5700 5701 5702 5702 5702 5701 5701 5700 5699 5698 5697 5696 5694 5692 5690 5688 5686 5684 5681 5679 5677
5660 5663 5666 5669 5672 5674 5677 5679 5681 5683 5685 5687 5688 5689 5691 5692 5693 5694 5695 5695 5696 5696 5696 5695 5695 5695 5696 5695 5694 5693 5692 5691 5690 5689 5687 5685 5683 5680 5678 5676 5673 5670 5668 5665
5660 5663 5666 5669 5671 5673 5676 5678 5680 5681 5683 5684 5685 5687 5688 5689 5690 5690 5690 5691 5691 5691 5691 5690 5690 5690 5689 5688 5687 5686 5685 5684 5682 5681 5678 5676 5673 5671 5668 5666 5663 5660 5656 5653
5660 5663 5665 5668 5670 5673 5675 5676 5678 5680 5681 5682 5683 5684 5685 5685 5686 5686 5686 5686 5686 5686 5686 5685 5685 5684 5683 5682 5681 5679 5678 5676 5675 5673 5670 5668 5665 5662 5659 5656 5653 5649 5645 5642
5659 5662 5664 5667 5669 5671 5673 5675 5676 5678 5679 5680 5680 5681 5681 5682 5682 5682 5682 5682 5681 5681 5680 5679 5679 5678 5677 5676 5674 5672 5671 5669 5667 5664 5662 5659 5656 5653 5649 5646 5642 5638 5634 5631